When you browse on this site, cookies collect data to enhance your experience and personalize the content and advertising you see.
Visit our Privacy Policy to learn more. By continuing to use the site, you agree to this use of cookies and data.
  • In Portugal
  • List of Countries
  • For 7 days
  • Water Temperature
  • Weather Map
  • Weather Widgets
  • user-avatar
    Login

    Hourly Weather Baklushina

    Today, 31 May, Sunday

    Time Temperature Precipitation Wind Pressure Humidity
    00:00 +13°C° 0.2 mm 2 mps 741 mmHg 94%
    01:00 +12°C° 0.2 mm 2 mps 741 mmHg 95%
    02:00 +12°C° 0.1 mm 2 mps 741 mmHg 94%
    03:00 +10°C° 0.1 mm 3 mps 741 mmHg 92%
    04:00 +10°C° 0 mm 3 mps 741 mmHg 85%
    05:00 +9°C° 0.2 mm 3 mps 740 mmHg 86%
    06:00 +9°C° 0.2 mm 3 mps 740 mmHg 87%
    07:00 +7°C° 0.2 mm 4 mps 740 mmHg 88%
    08:00 +7°C° 0 mm 4 mps 740 mmHg 85%
    09:00 +8°C° 0 mm 4 mps 739 mmHg 81%
    10:00 +8°C° 0 mm 4 mps 740 mmHg 79%
    11:00 +8°C° 0 mm 4 mps 739 mmHg 76%
    12:00 +8°C° 0 mm 5 mps 739 mmHg 73%
    13:00 +8°C° 0 mm 5 mps 739 mmHg 70%
    14:00 +8°C° 0.1 mm 5 mps 739 mmHg 72%
    15:00 +8°C° 0.1 mm 5 mps 739 mmHg 73%
    16:00 +7°C° 0.1 mm 5 mps 739 mmHg 75%
    17:00 +7°C° 0 mm 4 mps 738 mmHg 74%
    18:00 +7°C° 0 mm 4 mps 738 mmHg 73%
    19:00 +7°C° 0 mm 4 mps 737 mmHg 72%
    20:00 +7°C° 0 mm 4 mps 737 mmHg 73%
    21:00 +7°C° 0 mm 4 mps 737 mmHg 73%
    22:00 +7°C° 0 mm 4 mps 737 mmHg 74%
    23:00 +6°C° 2.2 mm 4 mps 736 mmHg 81%

    Tomorrow, 1 June, Monday

    Time Temperature Precipitation Wind Pressure Humidity
    00:00 +5°C° 2.2 mm 4 mps 735 mmHg 88%
    01:00 +5°C° 2.2 mm 4 mps 735 mmHg 96%
    02:00 +5°C° 1.7 mm 4 mps 734 mmHg 96%
    03:00 +5°C° 1.7 mm 5 mps 734 mmHg 96%
    04:00 +5°C° 1.7 mm 5 mps 734 mmHg 96%
    05:00 +5°C° 0.9 mm 4 mps 734 mmHg 96%
    06:00 +5°C° 0.9 mm 4 mps 734 mmHg 97%
    07:00 +5°C° 0.9 mm 3 mps 733 mmHg 97%
    08:00 +5°C° 0.8 mm 3 mps 734 mmHg 97%
    09:00 +5°C° 0.8 mm 3 mps 735 mmHg 97%
    10:00 +5°C° 0.8 mm 4 mps 735 mmHg 97%
    11:00 +5°C° 0.3 mm 3 mps 736 mmHg 97%
    12:00 +7°C° 0.3 mm 3 mps 736 mmHg 97%
    13:00 +7°C° 0.3 mm 3 mps 736 mmHg 97%
    14:00 +5°C° 0.5 mm 3 mps 737 mmHg 97%
    15:00 +5°C° 0.5 mm 3 mps 738 mmHg 97%
    16:00 +5°C° 0.5 mm 3 mps 738 mmHg 97%
    17:00 +5°C° 0.3 mm 3 mps 738 mmHg 97%
    18:00 +5°C° 0.3 mm 3 mps 739 mmHg 97%
    19:00 +6°C° 0.3 mm 2 mps 739 mmHg 97%
    20:00 +6°C° 0.1 mm 2 mps 739 mmHg 98%
    21:00 +6°C° 0.1 mm 2 mps 740 mmHg 98%
    22:00 +6°C° 0.1 mm 2 mps 740 mmHg 98%
    23:00 +6°C° 0 mm 2 mps 740 mmHg 98%

    Day after tomorrow, 2 June, Tuesday

    Time Temperature Precipitation Wind Pressure Humidity
    00:00 +6°C° 0 mm 2 mps 741 mmHg 98%
    01:00 +6°C° 0 mm 2 mps 741 mmHg 98%
    02:00 +5°C° 0 mm 2 mps 741 mmHg 98%
    03:00 +5°C° 0 mm 2 mps 741 mmHg 98%
    04:00 +5°C° 0 mm 2 mps 742 mmHg 98%
    05:00 +6°C° 0 mm 2 mps 742 mmHg 95%
    06:00 +6°C° 0 mm 2 mps 742 mmHg 93%
    07:00 +7°C° 0 mm 2 mps 742 mmHg 90%
    08:00 +10°C° 0 mm 1 mps 742 mmHg 81%
    09:00 +12°C° 0 mm 1 mps 743 mmHg 71%
    10:00 +14°C° 0 mm 1 mps 743 mmHg 62%
    11:00 +15°C° 0.1 mm 1 mps 743 mmHg 57%
    12:00 +16°C° 0.1 mm 1 mps 743 mmHg 53%
    13:00 +18°C° 0.1 mm 1 mps 743 mmHg 48%
    14:00 +18°C° 0 mm 1 mps 743 mmHg 48%
    15:00 +16°C° 0 mm 1 mps 743 mmHg 48%
    16:00 +16°C° 0 mm 2 mps 743 mmHg 48%
    17:00 +15°C° 0.1 mm 2 mps 743 mmHg 56%
    18:00 +14°C° 0.1 mm 2 mps 743 mmHg 64%
    19:00 +13°C° 0.1 mm 2 mps 743 mmHg 72%
    20:00 +12°C° 0 mm 1 mps 743 mmHg 78%
    21:00 +10°C° 0 mm 1 mps 743 mmHg 84%
    22:00 +8°C° 0 mm 1 mps 743 mmHg 89%
    23:00 +8°C° 0 mm 1 mps 743 mmHg 90%

    3 June, Wednesday

    Time Temperature Precipitation Wind Pressure Humidity
    00:00 +7°C° 0 mm 1 mps 743 mmHg 91%
    01:00 +7°C° 0 mm 1 mps 743 mmHg 92%
    02:00 +6°C° 0 mm 1 mps 744 mmHg 92%
    03:00 +6°C° 0 mm 1 mps 744 mmHg 91%
    04:00 +6°C° 0 mm 1 mps 744 mmHg 90%
    05:00 +8°C° 0 mm 1 mps 744 mmHg 81%
    06:00 +10°C° 0 mm 1 mps 744 mmHg 72%
    07:00 +12°C° 0 mm 1 mps 744 mmHg 63%
    08:00 +14°C° 0 mm 1 mps 744 mmHg 57%
    09:00 +15°C° 0 mm 1 mps 744 mmHg 50%
    10:00 +18°C° 0 mm 1 mps 744 mmHg 44%
    11:00 +18°C° 0 mm 1 mps 744 mmHg 42%
    12:00 +19°C° 0 mm 1 mps 744 mmHg 40%
    13:00 +20°C° 0 mm 1 mps 743 mmHg 38%
    14:00 +18°C° 0 mm 2 mps 743 mmHg 40%
    15:00 +18°C° 0 mm 2 mps 743 mmHg 43%
    16:00 +17°C° 0 mm 3 mps 743 mmHg 46%
    17:00 +16°C° 0 mm 2 mps 743 mmHg 52%
    18:00 +16°C° 0 mm 2 mps 743 mmHg 58%
    19:00 +15°C° 0 mm 2 mps 743 mmHg 64%
    20:00 +13°C° 0 mm 1 mps 744 mmHg 71%
    21:00 +11°C° 0 mm 1 mps 744 mmHg 78%
    22:00 +9°C° 0 mm 1 mps 744 mmHg 86%
    23:00 +8°C° 0 mm 1 mps 744 mmHg 88%

    4 June, Thursday

    Time Temperature Precipitation Wind Pressure Humidity
    00:00 +7°C° 0 mm 1 mps 745 mmHg 90%
    01:00 +7°C° 0 mm 1 mps 745 mmHg 92%
    02:00 +7°C° 0 mm 1 mps 745 mmHg 92%
    03:00 +7°C° 0 mm 1 mps 745 mmHg 92%
    04:00 +6°C° 0 mm 1 mps 746 mmHg 92%
    05:00 +8°C° 0 mm 1 mps 746 mmHg 83%
    06:00 +11°C° 0 mm 1 mps 746 mmHg 75%
    07:00 +13°C° 0 mm 1 mps 746 mmHg 67%
    08:00 +14°C° 0 mm 1 mps 746 mmHg 60%
    09:00 +15°C° 0 mm 2 mps 746 mmHg 53%
    10:00 +17°C° 0 mm 2 mps 746 mmHg 47%
    11:00 +18°C° 0 mm 2 mps 746 mmHg 44%
    12:00 +19°C° 0 mm 2 mps 745 mmHg 41%
    13:00 +20°C° 0 mm 2 mps 745 mmHg 38%
    14:00 +20°C° 0 mm 2 mps 745 mmHg 38%
    15:00 +20°C° 0 mm 2 mps 745 mmHg 38%
    16:00 +20°C° 0 mm 2 mps 745 mmHg 38%
    17:00 +19°C° 0 mm 2 mps 745 mmHg 45%
    18:00 +19°C° 0 mm 1 mps 745 mmHg 52%
    19:00 +18°C° 0 mm 1 mps 745 mmHg 59%
    20:00 +15°C° 0 mm 1 mps 745 mmHg 64%
    21:00 +12°C° 0 mm 1 mps 745 mmHg 69%
    22:00 +9°C° 0 mm 0 mps 746 mmHg 74%
    23:00 +9°C° 0 mm 0 mps 746 mmHg 76%

    5 June, Friday

    Time Temperature Precipitation Wind Pressure Humidity
    00:00 +8°C° 0 mm 0 mps 746 mmHg 78%
    01:00 +7°C° 0 mm 0 mps 746 mmHg 79%
    02:00 +7°C° 0 mm 0 mps 747 mmHg 79%
    03:00 +7°C° 0 mm 0 mps 747 mmHg 78%
    04:00 +7°C° 0 mm 0 mps 747 mmHg 78%
    05:00 +10°C° 0 mm 0 mps 747 mmHg 70%
    06:00 +13°C° 0 mm 0 mps 748 mmHg 63%
    07:00 +15°C° 0 mm 0 mps 748 mmHg 55%
    08:00 +18°C° 0 mm 1 mps 748 mmHg 50%
    09:00 +20°C° 0 mm 1 mps 748 mmHg 44%
    10:00 +20°C° 0 mm 2 mps 748 mmHg 38%
    11:00 +21°C° 0 mm 2 mps 748 mmHg 37%
    12:00 +21°C° 0 mm 2 mps 748 mmHg 35%
    13:00 +23°C° 0 mm 2 mps 747 mmHg 33%
    14:00 +23°C° 0 mm 2 mps 747 mmHg 34%
    15:00 +23°C° 0 mm 2 mps 747 mmHg 34%
    16:00 +23°C° 0 mm 2 mps 747 mmHg 34%
    17:00 +21°C° 0 mm 2 mps 747 mmHg 42%
    18:00 +20°C° 0 mm 2 mps 747 mmHg 50%
    19:00 +20°C° 0 mm 1 mps 747 mmHg 58%
    20:00 +18°C° 0 mm 1 mps 747 mmHg 61%
    21:00 +15°C° 0 mm 1 mps 747 mmHg 64%
    22:00 +13°C° 0 mm 1 mps 747 mmHg 67%
    23:00 +12°C° 0 mm 1 mps 747 mmHg 69%
    Show more